Time,TemperatureF,DewpointF,PressureIn,WindDirection,WindDirectionDegrees,WindSpeedMPH,WindSpeedGustMPH,Humidity,HourlyPrecipIn,Conditions,Clouds,dailyrainin,SoftwareType,DateUTC
2013-06-28 00:12:00,87.4,67.0,29.92,South,181,2.0,3.0,50,0.00,,,0.00,weatherlink.com 1.10,2013-06-28 05:12:00,
2013-06-28 00:27:00,87.3,66.0,29.92,SSE,161,2.0,4.0,49,0.00,,,0.00,weatherlink.com 1.10,2013-06-28 05:27:00,
2013-06-28 00:42:00,87.0,65.0,29.93,SSE,168,3.0,3.0,48,0.00,,,0.00,weatherlink.com 1.10,2013-06-28 05:42:00,
2013-06-28 00:57:00,86.8,65.0,29.93,SSW,212,1.0,4.0,49,0.00,,,0.00,weatherlink.com 1.10,2013-06-28 05:57:00,
2013-06-28 01:12:00,86.3,66.0,29.90,SW,217,4.0,6.0,50,0.00,,,0.00,weatherlink.com 1.10,2013-06-28 06:12:00,
2013-06-28 01:27:00,86.0,65.0,29.91,SSW,212,3.0,5.0,50,0.00,,,0.00,weatherlink.com 1.10,2013-06-28 06:27:00,
2013-06-28 01:42:00,85.4,65.0,29.91,SW,217,1.0,6.0,51,0.00,,,0.00,weatherlink.com 1.10,2013-06-28 06:42:00,
2013-06-28 01:57:00,85.3,65.0,29.92,SW,225,2.0,4.0,50,0.00,,,0.00,weatherlink.com 1.10,2013-06-28 06:57:00,
2013-06-28 02:12:00,85.5,64.0,29.91,SSW,209,2.0,5.0,49,0.00,,,0.00,weatherlink.com 1.10,2013-06-28 07:12:00,
2013-06-28 02:27:00,84.7,64.0,29.89,SW,225,3.0,6.0,50,0.00,,,0.00,weatherlink.com 1.10,2013-06-28 07:27:00,
2013-06-28 02:42:00,84.2,64.0,29.90,SW,219,5.0,5.0,51,0.00,,,0.00,weatherlink.com 1.10,2013-06-28 07:42:00,
2013-06-28 02:57:00,83.8,64.0,29.90,SSW,209,4.0,5.0,51,0.00,,,0.00,weatherlink.com 1.10,2013-06-28 07:57:00,
2013-06-28 03:12:00,83.1,64.0,29.89,SW,229,5.0,6.0,53,0.00,,,0.00,weatherlink.com 1.10,2013-06-28 08:12:00,
2013-06-28 03:27:00,82.9,64.0,29.90,SW,234,3.0,4.0,53,0.00,,,0.00,weatherlink.com 1.10,2013-06-28 08:27:00,
2013-06-28 03:42:00,82.8,64.0,29.89,SW,222,2.0,4.0,53,0.00,,,0.00,weatherlink.com 1.10,2013-06-28 08:42:00,
2013-06-28 03:57:00,82.6,64.0,29.89,SW,226,4.0,4.0,54,0.00,,,0.00,weatherlink.com 1.10,2013-06-28 08:57:00,
2013-06-28 04:12:00,82.6,64.0,29.90,SW,235,2.0,4.0,53,0.00,,,0.00,weatherlink.com 1.10,2013-06-28 09:12:00,
2013-06-28 04:27:00,82.4,64.0,29.89,SSW,205,2.0,6.0,54,0.00,,,0.00,weatherlink.com 1.10,2013-06-28 09:27:00,
2013-06-28 04:42:00,82.1,64.0,29.89,SW,229,6.0,6.0,54,0.00,,,0.00,weatherlink.com 1.10,2013-06-28 09:42:00,
2013-06-28 04:57:00,82.0,64.0,29.88,SSW,209,5.0,9.0,54,0.00,,,0.00,weatherlink.com 1.10,2013-06-28 09:57:00,
2013-06-28 05:12:00,81.2,64.0,29.87,SW,221,8.0,10.0,56,0.00,,,0.00,weatherlink.com 1.10,2013-06-28 10:12:00,
2013-06-28 05:27:00,80.7,64.0,29.87,South,176,4.0,9.0,57,0.00,,,0.00,weatherlink.com 1.10,2013-06-28 10:27:00,
2013-06-28 05:42:00,80.1,64.0,29.87,SSW,205,6.0,10.0,59,0.00,,,0.00,weatherlink.com 1.10,2013-06-28 10:42:00,
2013-06-28 05:58:00,79.7,64.0,29.89,SSW,212,4.0,6.0,60,0.00,,,0.00,weatherlink.com 1.10,2013-06-28 10:58:00,
2013-06-28 06:13:00,79.5,64.0,29.89,WSW,241,3.0,6.0,60,0.00,,,0.00,weatherlink.com 1.10,2013-06-28 11:13:00,
2013-06-28 06:28:00,79.6,64.0,29.91,WSW,242,2.0,5.0,60,0.00,,,0.00,weatherlink.com 1.10,2013-06-28 11:28:00,
2013-06-28 06:43:00,79.6,64.0,29.92,SW,232,1.0,-999.0,60,-99.99,,,0.00,weatherlink.com 1.10,2013-06-28 11:43:00,
2013-06-28 06:58:00,79.7,64.0,29.92,SSE,163,2.0,4.0,60,0.00,,,0.00,weatherlink.com 1.10,2013-06-28 11:58:00,
2013-06-28 07:13:00,79.6,65.0,29.92,SSW,204,1.0,5.0,61,0.00,,,0.00,weatherlink.com 1.10,2013-06-28 12:13:00,
2013-06-28 07:28:00,79.7,65.0,29.92,SSW,212,5.0,6.0,61,0.00,,,0.00,weatherlink.com 1.10,2013-06-28 12:28:00,
2013-06-28 07:43:00,79.3,65.0,29.91,SW,226,2.0,7.0,62,0.00,,,0.00,weatherlink.com 1.10,2013-06-28 12:43:00,
2013-06-28 07:58:00,79.9,65.0,29.93,SSW,198,1.0,6.0,61,0.00,,,0.00,weatherlink.com 1.10,2013-06-28 12:58:00,
2013-06-28 08:13:00,80.5,65.0,29.93,SSW,211,4.0,5.0,60,0.00,,,0.00,weatherlink.com 1.10,2013-06-28 13:13:00,
2013-06-28 08:28:00,80.9,65.0,29.93,SSE,164,2.0,7.0,59,0.00,,,0.00,weatherlink.com 1.10,2013-06-28 13:28:00,
2013-06-28 08:43:00,81.0,66.0,29.93,South,173,3.0,7.0,60,0.00,,,0.00,weatherlink.com 1.10,2013-06-28 13:43:00,
2013-06-28 08:58:00,82.4,66.0,29.93,SSW,201,3.0,9.0,58,0.00,,,0.00,weatherlink.com 1.10,2013-06-28 13:58:00,
2013-06-28 09:13:00,83.0,67.0,29.93,SSW,195,2.0,7.0,58,0.00,,,0.00,weatherlink.com 1.10,2013-06-28 14:13:00,
2013-06-28 09:28:00,84.1,66.0,29.92,SW,229,5.0,10.0,55,0.00,,,0.00,weatherlink.com 1.10,2013-06-28 14:28:00,
2013-06-28 09:43:00,85.1,65.0,29.93,SW,236,6.0,8.0,52,0.00,,,0.00,weatherlink.com 1.10,2013-06-28 14:43:00,
2013-06-28 09:58:00,86.2,64.0,29.93,WNW,291,3.0,8.0,48,0.00,,,0.00,weatherlink.com 1.10,2013-06-28 14:58:00,
2013-06-28 10:13:00,86.7,64.0,29.92,WSW,257,5.0,7.0,47,0.00,,,0.00,weatherlink.com 1.10,2013-06-28 15:13:00,
2013-06-28 10:28:00,87.1,64.0,29.92,WSW,249,4.0,9.0,46,0.00,,,0.00,weatherlink.com 1.10,2013-06-28 15:28:00,
2013-06-28 10:43:00,87.7,64.0,29.92,West,266,2.0,7.0,46,0.00,,,0.00,weatherlink.com 1.10,2013-06-28 15:43:00,
2013-06-28 10:58:00,87.9,64.0,29.92,West,269,2.0,6.0,45,0.00,,,0.00,weatherlink.com 1.10,2013-06-28 15:58:00,
2013-06-28 11:13:00,88.5,65.0,29.91,WSW,239,4.0,6.0,45,0.00,,,0.00,weatherlink.com 1.10,2013-06-28 16:13:00,
2013-06-28 11:28:00,89.0,64.0,29.91,SW,229,3.0,5.0,44,0.00,,,0.00,weatherlink.com 1.10,2013-06-28 16:28:00,
2013-06-28 11:43:00,90.7,65.0,29.91,SW,228,3.0,5.0,43,0.00,,,0.00,weatherlink.com 1.10,2013-06-28 16:43:00,
2013-06-28 11:58:00,92.6,66.0,29.91,SW,233,5.0,6.0,41,0.00,,,0.00,weatherlink.com 1.10,2013-06-28 16:58:00,
2013-06-28 12:13:00,93.9,64.0,29.90,WNW,283,2.0,7.0,37,0.00,,,0.00,weatherlink.com 1.10,2013-06-28 17:13:00,
2013-06-28 12:28:00,95.2,64.0,29.90,NW,326,6.0,8.0,36,0.00,,,0.00,weatherlink.com 1.10,2013-06-28 17:28:00,
2013-06-28 12:43:00,96.2,64.0,29.89,WNW,284,6.0,9.0,34,0.00,,,0.00,weatherlink.com 1.10,2013-06-28 17:43:00,
2013-06-28 12:58:00,97.6,64.0,29.89,NNW,335,6.0,9.0,33,0.00,,,0.00,weatherlink.com 1.10,2013-06-28 17:58:00,
2013-06-28 13:13:00,97.7,64.0,29.88,West,272,2.0,10.0,33,0.00,,,0.00,weatherlink.com 1.10,2013-06-28 18:13:00,
2013-06-28 13:28:00,98.3,63.0,29.87,WNW,298,2.0,10.0,31,0.00,,,0.00,weatherlink.com 1.10,2013-06-28 18:28:00,
2013-06-28 13:43:00,98.9,64.0,29.87,NW,323,7.0,11.0,32,0.00,,,0.00,weatherlink.com 1.10,2013-06-28 18:43:00,
2013-06-28 13:58:00,99.2,64.0,29.86,NNW,328,4.0,9.0,31,0.00,,,0.00,weatherlink.com 1.10,2013-06-28 18:58:00,
2013-06-28 14:14:00,100.0,63.0,29.86,NNW,334,8.0,8.0,30,0.00,,,0.00,weatherlink.com 1.10,2013-06-28 19:14:00,
2013-06-28 14:29:00,100.1,63.0,29.85,NNW,343,6.0,13.0,29,0.00,,,0.00,weatherlink.com 1.10,2013-06-28 19:29:00,
2013-06-28 14:44:00,100.6,63.0,29.85,NNW,329,3.0,9.0,29,0.00,,,0.00,weatherlink.com 1.10,2013-06-28 19:44:00,
2013-06-28 14:59:00,101.1,64.0,29.84,NNE,17,7.0,12.0,30,0.00,,,0.00,weatherlink.com 1.10,2013-06-28 19:59:00,
2013-06-28 15:14:00,101.4,65.0,29.83,NE,46,5.0,11.0,30,0.00,,,0.00,weatherlink.com 1.10,2013-06-28 20:14:00,
2013-06-28 15:29:00,101.6,65.0,29.82,NE,49,7.0,9.0,30,0.00,,,0.00,weatherlink.com 1.10,2013-06-28 20:29:00,
2013-06-28 15:44:00,102.3,66.0,29.82,WNW,300,7.0,14.0,31,0.00,,,0.00,weatherlink.com 1.10,2013-06-28 20:44:00,
2013-06-28 15:59:00,102.4,66.0,29.81,ENE,75,6.0,12.0,30,0.00,,,0.00,weatherlink.com 1.10,2013-06-28 20:59:00,
2013-06-28 16:14:00,102.9,64.0,29.81,NE,53,11.0,15.0,28,0.00,,,0.00,weatherlink.com 1.10,2013-06-28 21:14:00,
2013-06-28 16:29:00,102.6,66.0,29.80,NNE,12,2.0,14.0,30,0.00,,,0.00,weatherlink.com 1.10,2013-06-28 21:29:00,
2013-06-28 16:44:00,102.2,65.0,29.80,NE,41,5.0,13.0,30,0.00,,,0.00,weatherlink.com 1.10,2013-06-28 21:44:00,
2013-06-28 16:59:00,102.6,65.0,29.80,NE,42,4.0,13.0,29,0.00,,,0.00,weatherlink.com 1.10,2013-06-28 21:59:00,
2013-06-28 17:14:00,102.8,65.0,29.80,NE,54,8.0,12.0,29,0.00,,,0.00,weatherlink.com 1.10,2013-06-28 22:14:00,
2013-06-28 17:29:00,102.5,67.0,29.80,NNE,20,8.0,11.0,31,0.00,,,0.00,weatherlink.com 1.10,2013-06-28 22:29:00,
2013-06-28 17:44:00,102.0,67.0,29.80,NE,36,7.0,13.0,32,0.00,,,0.00,weatherlink.com 1.10,2013-06-28 22:44:00,
2013-06-28 17:59:00,101.9,67.0,29.80,NNE,18,8.0,10.0,32,0.00,,,0.00,weatherlink.com 1.10,2013-06-28 22:59:00,
2013-06-28 18:14:00,101.2,68.0,29.80,NE,35,4.0,10.0,34,0.00,,,0.00,weatherlink.com 1.10,2013-06-28 23:14:00,
2013-06-28 18:30:00,100.8,69.0,29.79,NNW,332,4.0,12.0,35,0.00,,,0.00,weatherlink.com 1.10,2013-06-28 23:30:00,
2013-06-28 18:45:00,100.6,69.0,29.79,NE,47,8.0,12.0,36,0.00,,,0.00,weatherlink.com 1.10,2013-06-28 23:45:00,
2013-06-28 19:00:00,99.9,69.0,29.79,NW,326,3.0,12.0,37,0.00,,,0.00,weatherlink.com 1.10,2013-06-29 00:00:00,
2013-06-28 19:15:00,99.2,69.0,29.79,ENE,67,9.0,13.0,37,0.00,,,0.00,weatherlink.com 1.10,2013-06-29 00:15:00,
2013-06-28 19:30:00,98.5,68.0,29.80,NNE,27,10.0,11.0,37,0.00,,,0.00,weatherlink.com 1.10,2013-06-29 00:30:00,
2013-06-28 19:45:00,97.8,67.0,29.80,NNW,329,3.0,14.0,37,0.00,,,0.00,weatherlink.com 1.10,2013-06-29 00:45:00,
2013-06-28 20:00:00,97.5,68.0,29.80,NNE,23,8.0,9.0,38,0.00,,,0.00,weatherlink.com 1.10,2013-06-29 01:00:00,
2013-06-28 20:15:00,96.8,69.0,29.80,North,9,3.0,9.0,40,0.00,,,0.00,weatherlink.com 1.10,2013-06-29 01:15:00,
2013-06-28 20:30:00,95.9,69.0,29.80,NE,44,2.0,8.0,41,0.00,,,0.00,weatherlink.com 1.10,2013-06-29 01:30:00,
2013-06-28 20:45:00,95.1,70.0,29.81,NNW,345,4.0,7.0,44,0.00,,,0.00,weatherlink.com 1.10,2013-06-29 01:45:00,
2013-06-28 21:00:00,94.5,69.0,29.81,ENE,58,5.0,10.0,44,0.00,,,0.00,weatherlink.com 1.10,2013-06-29 02:00:00,
2013-06-28 21:15:00,93.9,70.0,29.82,NE,39,7.0,9.0,45,0.00,,,0.00,weatherlink.com 1.10,2013-06-29 02:15:00,
2013-06-28 21:30:00,93.3,69.0,29.82,NE,49,4.0,7.0,45,0.00,,,0.00,weatherlink.com 1.10,2013-06-29 02:30:00,
2013-06-28 21:45:00,92.8,68.0,29.83,ENE,65,3.0,8.0,44,0.00,,,0.00,weatherlink.com 1.10,2013-06-29 02:45:00,
2013-06-28 22:00:00,92.4,67.0,29.83,NE,53,7.0,8.0,43,0.00,,,0.00,weatherlink.com 1.10,2013-06-29 03:00:00,
2013-06-28 22:15:00,91.9,66.0,29.83,NE,49,3.0,7.0,43,0.00,,,0.00,weatherlink.com 1.10,2013-06-29 03:15:00,
2013-06-28 22:30:00,91.1,66.0,29.83,NE,41,3.0,4.0,44,0.00,,,0.00,weatherlink.com 1.10,2013-06-29 03:30:00,
2013-06-28 22:46:00,90.5,67.0,29.83,NE,44,1.0,4.0,46,0.00,,,0.00,weatherlink.com 1.10,2013-06-29 03:46:00,
2013-06-28 23:00:00,90.0,67.0,29.83,ENE,64,3.0,4.0,46,0.00,,,0.00,weatherlink.com 1.10,2013-06-29 04:00:00,
2013-06-28 23:15:00,89.6,67.0,29.83,NE,36,2.0,4.0,47,0.00,,,0.00,weatherlink.com 1.10,2013-06-29 04:15:00,
2013-06-28 23:30:00,89.0,66.0,29.83,NNE,17,0.0,3.0,47,0.00,,,0.00,weatherlink.com 1.10,2013-06-29 04:30:00,
2013-06-28 23:46:00,88.4,66.0,29.83,NE,37,0.0,3.0,48,0.00,,,0.00,weatherlink.com 1.10,2013-06-29 04:46:00,